Location: Grand Moustoir
(47.8355°N, 3.3120°W)
Time: 00:50:39
(UTC+00:00)

Daily predictions for brighter satellites

Satellite Brightness Start Highest point End
(mag) Time Altitude Azimuth Time Altitude Azimuth Time Altitude Azimuth
Cosmos 2227 Rocket 4.4 04:07:20 17° SE 04:07:20 17° SE 04:08:31 10° SE
ATLAS 3B R/B 4.3 04:06:41 24° NNE 04:07:00 24° NNE 04:12:19 10° ENE
USA 215 3.5 04:16:59 10° ESE 04:22:45 66° ENE 04:22:45 66° ENE
Cosmos 2184 Rocket 4.4 04:28:02 59° E 04:28:02 59° E 04:34:07 10° SSE
CENTAUR R/B 4.1 04:30:14 30° N 04:33:00 39° NNE 04:40:49 10° E
USA 238 DEB 4.1 04:51:11 45° NNW 04:53:21 64° NE 05:00:41 10° SE
USA 238 4.1 04:51:16 45° NNW 04:53:27 64° NE 05:00:47 10° SE
Cosmos 1980 Rocket 4.0 04:48:53 10° SSE 04:53:43 29° ESE 04:58:33 10° NE
Lacrosse 5 rocket 3.2 05:00:19 27° NNE 05:00:19 27° NNE 05:02:40 10° NE
Cosmos 2074 Rocket 3.8 04:59:00 78° SSW 04:59:00 78° SSW 05:04:50 10° S
Cosmos 1697 Rocket 3.1 04:59:42 36° S 05:01:51 59° ESE 05:07:23 10° NE
Cosmos 44 Rocket 3.5 05:08:04 61° ESE 05:08:04 61° ESE 05:12:03 10° SE
Cosmos 1953 3.7 05:11:18 10° SSE 05:15:03 38° E 05:18:50 10° NNE
COSMO-SKYMED 1 2.8 05:14:08 10° SSE 05:17:54 65° SE 05:17:54 65° SE
Meteor 1-22 Rocket 4.4 05:20:46 59° WNW 05:20:46 59° WNW 05:26:31 10° N
Cosmos 2082 3.7 05:22:57 60° SW 05:22:57 60° SW 05:28:17 10° S
BREEZE-M DEB (TANK) 3.6 05:27:28 74° NNE 05:27:28 74° NNE 05:34:12 10° E
PSLV R/B 4.5 05:25:01 10° NNE 05:27:47 45° NNE 05:27:47 45° NNE
STARLINK-43 4.1 05:33:25 44° NNE 05:33:25 44° NNE 05:36:14 10° ENE
Cosmos 1538 Rocket 4.3 05:27:33 10° S 05:32:52 69° ESE 05:38:09 10° NNE
Cosmos 2297 Rocket 4.0 05:37:57 16° SSW 05:37:57 16° SSW 05:39:22 10° SSW
Cosmos 2341 Rocket 4.2 05:32:36 10° N 05:38:55 74° E 05:45:08 10° SSE
SJ-12 3.8 05:36:05 10° NNE 05:40:11 89° ESE 05:44:15 10° SSW
Cosmos 2344 3.5 05:37:54 19° SW 05:43:39 82° NW 05:52:02 10° NE
NOSS 3-2 (C) 4.1 05:40:39 23° NW 05:45:44 78° NE 05:54:06 10° SE
Cosmos 2227 Rocket 3.8 05:49:13 18° SW 05:49:13 18° SW 05:51:04 10° SSW
Cosmos 2360 4.2 05:42:39 10° SSW 05:48:23 89° ESE 05:54:10 10° NNE
ALOS 2.1 05:44:57 10° NNE 05:49:39 83° WNW 05:54:19 10° SSW
NOSS 2-2 (C) 3.1 05:49:03 55° SW 05:49:49 88° SE 05:53:58 10° NE
Nadezhda 1 Rocket 3.9 05:45:45 10° SSW 05:51:43 58° WNW 05:57:43 10° N
STARLINK-80 3.2 05:51:41 68° NW 05:51:55 71° NNW 05:55:43 10° ENE
Cosmos 2263 Rocket 2.7 05:48:33 13° NNW 05:53:29 57° ENE 05:59:02 10° SE
STARLINK-60 4.1 05:53:38 35° N 05:53:42 35° N 05:56:51 10° ENE
Cosmos 2228 3.6 05:50:15 10° S 05:54:34 59° E 05:58:55 10° NNE
STARLINK-48 3.3 05:54:58 57° WSW 05:55:43 87° NNW 05:59:37 10° ENE
CZ-2C R/B 4.2 05:52:03 10° N 05:53:21 16° NNW 05:53:21 16° NNW
ATLAS 3B R/B 3.2 05:53:57 17° NNW 05:59:08 56° NE 06:05:53 10° ESE
NOAA 6 4.3 05:54:06 10° NNE 05:59:19 72° ESE 06:04:29 10° S
Cosmos 1656 4.2 05:58:59 33° WNW 05:59:28 34° NW 06:04:28 10° NNE
Abrixas rocket 1.8 06:00:19 87° S 06:00:19 87° S 06:03:21 10° ESE
NOSS 2-2 (E) 3.2 05:59:54 50° W 06:00:38 62° NW 06:04:54 10° NE
NOSS 8 (H) 4.3 06:01:39 54° NNW 06:01:39 54° NNW 06:04:26 10° NE
CZ-3 R/B 4.0 05:50:21 13° WSW 06:01:50 25° SSW 06:07:44 10° SSE
Meteor 2-17 Rocket 4.4 05:57:33 10° NNW 06:03:32 59° W 06:09:27 10° S
Helios 1A Rocket 3.4 06:01:41 10° NNE 06:05:47 61° ESE 06:09:52 10° S
Cosmos 2278 3.7 06:00:15 10° SW 06:05:55 64° WNW 06:11:38 10° NNE
STARLINK-26 3.3 06:05:19 37° SW 06:06:34 74° SSE 06:10:06 10° ENE
SKYMED 2 4.2 06:02:41 10° SSW 06:06:28 34° WSW 06:06:28 34° WSW
USA 215 3.7 06:00:37 10° SSE 06:06:46 43° SW 06:10:06 25° WNW
Cosmos 1953 Rocket 3.6 06:03:05 10° N 06:07:34 85° E 06:11:59 10° S
FALCON 9 DEB 4.1 06:07:43 31° NNW 06:08:29 35° N 06:11:46 10° ENE
NOSS 3-2 (A) 4.1 06:03:13 21° NW 06:08:30 64° WSW 06:16:46 10° SSE
METEOR-M 4.1 06:04:02 10° N 06:09:21 63° WNW 06:14:37 10° SSW
BREEZE M DEB (TANK) 4.2 06:00:25 22° W 06:11:32 83° N 06:16:15 10° E
STARLINK-33 4.5 06:09:18 12° SSW 06:12:23 41° SE 06:15:51 10° ENE
Cosmos 1758 Rocket 3.7 06:09:31 17° NNW 06:12:44 51° W 06:16:59 10° S
Cosmos 2218 Rocket 4.1 06:06:38 10° N 06:13:05 82° E 06:19:27 10° S
Cosmos 2369 4.0 06:10:36 19° WSW 06:14:26 43° NW 06:19:55 10° NNE
Okean O Rocket 1.5 06:10:17 10° NNE 06:14:47 84° WNW 06:19:13 10° SSW
SL-4 R/B 1.9 06:15:07 37° W 06:16:05 49° SSW 06:19:26 10° SE
STARLINK-66 4.3 06:13:29 12° SW 06:16:39 45° SE 06:20:09 10° ENE
SL-16 R/B 3.5 06:14:13 10° S 06:19:32 43° ESE 06:24:51 10° NE
STARLINK-45 4.4 06:16:18 10° SW 06:20:11 49° SE 06:24:06 10° ENE
STARLINK-42 4.3 06:17:11 10° SW 06:20:50 47° SE 06:24:31 10° ENE
STARLINK-55 4.1 06:18:03 12° SW 06:21:20 50° SE 06:24:50 10° ENE
STARLINK-70 4.4 06:17:51 10° SW 06:21:44 49° SE 06:25:38 10° ENE
STARLINK-29 4.1 06:20:28 26° NW 06:21:46 36° N 06:25:04 10° ENE
STARLINK-64 4.3 06:18:35 10° SW 06:22:15 47° SE 06:25:57 10° ENE
STARLINK-52 4.2 06:21:08 26° NW 06:22:26 35° N 06:25:42 10° ENE
STARLINK-76 4.5 06:19:25 10° SW 06:23:16 48° SE 06:27:09 10° ENE
H-2A R/B 3.4 06:20:19 10° NNE 06:24:13 60° E 06:28:04 10° S
CENTAUR R/B 3.2 06:17:24 14° NW 06:24:37 85° SW 06:33:22 10° SE
STARLINK 4.4 06:21:03 10° SW 06:24:55 49° SE 06:28:50 10° ENE
PAYLOAD B 4.2 06:19:45 10° N 06:25:17 61° WNW 06:30:48 10° SSW
STARLINK-32 4.4 06:22:41 10° SW 06:26:35 50° SE 06:30:30 10° ENE
CZ-4B R/B 3.1 06:22:03 10° NNE 06:27:40 76° WNW 06:33:07 10° SSW
COSMOS 2455 2.8 06:21:54 10° SW 06:27:55 75° NW 06:33:58 10° NNE
STARLINK-40 4.3 06:24:20 10° SW 06:28:14 52° SE 06:32:10 10° ENE
OPS 6432 4.5 06:26:22 23° NW 06:28:20 82° NE 06:32:24 10° SE
Meteor 1-16 Rocket 4.3 06:22:43 10° SSW 06:28:39 75° WNW 06:34:32 10° N
STARLINK-28 3.7 06:26:23 11° SW 06:29:41 60° SSE 06:33:12 10° ENE
STARLINK-44 4.3 06:25:57 10° SW 06:29:52 53° SE 06:33:48 10° ENE
ADEOS Rocket 2.7 06:24:50 10° SSE 06:30:19 80° WSW 06:35:59 10° NNW
STARLINK-37 4.1 06:27:40 10° SW 06:31:36 57° SSE 06:35:35 10° ENE
STARLINK-36 4.2 06:29:15 10° SW 06:33:11 56° SE 06:37:08 10° ENE
STARLINK-68 4.0 06:31:02 10° SW 06:35:00 62° SSE 06:39:00 10° ENE
ATLAS 2AS CENTAUR R/B 3.2 06:28:03 10° SSW 06:36:02 83° SE 06:44:04 10° NE
FENGYUN 3A 4.1 06:31:18 10° N 06:36:17 39° WNW 06:41:16 10° SW
STARLINK-63 4.0 06:32:35 10° SW 06:36:33 61° SSE 06:40:32 10° ENE
Meteor 1-11 4.2 06:31:12 10° NNW 06:36:49 84° W 06:42:27 10° S
Meteor 2-10 4.1 06:31:41 10° SSW 06:37:12 63° WNW 06:42:33 10° N
Cosmos 1980 Rocket 2.4 06:31:55 10° SW 06:37:28 51° NW 06:43:00 10° NNE
Cosmos 2058 Rocket 3.0 06:33:19 10° S 06:37:43 86° W 06:42:08 10° N
STARLINK-35 4.0 06:34:09 10° SW 06:38:07 60° SSE 06:42:05 10° ENE
Lacrosse 5 rocket 2.9 06:35:58 16° NW 06:38:30 25° N 06:42:14 10° NE
Cosmos 1726 2.4 06:35:01 10° SSW 06:38:31 42° WNW 06:42:02 10° N
Cosmos 1908 3.1 06:34:44 10° SSW 06:38:38 78° W 06:42:35 10° N
Cosmos 1825 Rocket 4.2 06:34:50 10° NNW 06:38:40 31° W 06:42:30 10° SSW
Cosmos 1624 Rocket 4.2 06:33:32 10° NNW 06:38:47 73° ENE 06:43:58 10° SSE
STARLINK-51 4.0 06:35:47 10° SW 06:39:45 62° SSE 06:43:45 10° ENE
CZ-4 R/B 4.3 06:36:55 10° NE 06:40:13 22° E 06:43:29 10° SE
STARLINK-61 3.4 06:37:05 11° WSW 06:40:50 90° WNW 06:44:50 10° ENE
Cosmos 1959 Rocket 4.4 06:34:54 10° NNW 06:40:57 66° W 06:47:01 10° S
STARLINK-30 4.0 06:37:26 10° SW 06:41:25 64° SSE 06:45:25 10° ENE
STARLINK-72 3.9 06:39:05 10° SW 06:43:04 66° SSE 06:47:04 10° ENE
Cosmos 1703 3.5 06:39:32 10° NNW 06:43:24 48° W 06:47:10 10° SSW
USA 238 DEB 4.5 06:38:38 14° WNW 06:44:03 37° WSW 06:50:41 10° S
USA 238 4.4 06:38:44 14° WNW 06:44:10 37° WSW 06:50:48 10° S
STARLINK-50 3.9 06:40:44 10° SW 06:44:43 67° SSE 06:48:44 10° ENE
EXPRESS MD2 2.4 06:43:27 20° W 06:45:08 55° N 06:47:19 10° ENE
Cosmos 1697 Rocket 3.5 06:41:33 11° WSW 06:46:12 28° NW 06:51:03 10° NNE
STARLINK-59 3.8 06:42:28 10° SW 06:46:29 71° SSE 06:50:30 10° ENE
STARLINK-56 3.8 06:44:02 10° SW 06:48:01 70° SSE 06:52:03 10° ENE
Starlink (trailer) 3.8 06:45:41 10° SW 06:49:42 72° SSE 06:53:43 10° ENE
SMAP 3.1 06:45:10 10° NNE 06:49:52 88° WNW 06:54:31 10° SSW
CZ-2C R/B 4.4 06:45:39 10° ESE 06:50:11 30° ENE 06:54:48 10° N
Cosmos 2366 rocket 4.1 06:44:27 10° NNW 06:50:41 59° W 06:56:54 10° S
STARLINK-38 3.7 06:47:19 10° SW 06:51:20 74° SSE 06:55:21 10° ENE
Cosmos 1953 3.6 06:48:33 10° WSW 06:51:36 20° WNW 06:54:42 10° NNW
STARLINK-65 3.7 06:48:57 10° SW 06:52:58 76° SSE 06:57:00 10° ENE
Cosmos 2056 Rocket 3.6 06:47:48 10° NNW 06:53:16 89° WSW 06:58:43 10° SSE
STARLINK-75 3.5 06:50:02 10° WSW 06:53:54 85° SSE 06:57:49 10° ENE
STARLINK-53 3.6 06:50:41 10° WSW 06:54:42 80° SSE 06:58:44 10° ENE
COSMO-SKYMED 1 4.4 06:53:37 10° WSW 06:55:07 12° W 06:55:07 12° W
Genesis I 3.1 06:51:45 11° NW 06:55:27 77° SW 06:59:15 10° SSE
Cosmos 923 Rocket 4.1 06:53:36 10° SW 06:58:44 53° WNW 07:03:57 10° NNE
Cosmos 1606 Rocket 4.4 06:55:17 10° SW 06:59:11 29° WNW 07:03:04 10° N
Cosmos 1726 Rocket 4.2 06:57:36 10° SW 07:01:38 33° WNW 07:05:42 10° N
NOSS 2-2 (D) 4.4 06:58:53 11° W 07:02:03 27° NNW 07:05:51 10° NNE
STARLINK-41 3.5 06:59:24 10° WSW 07:03:17 86° SE 07:07:10 10° ENE
FALCON 9 DEB 1.4 07:04:17 10° WSW 07:06:02 78° SSE 07:07:48 10° ENE
Lacrosse 5 3.5 07:02:41 10° SSW 07:07:22 39° SE 07:12:04 10° ENE
STARLINK-58 3.5 07:03:52 10° WSW 07:07:54 88° NNW 07:11:57 10° ENE
NOAA 12 4.2 07:03:46 10° NNE 07:09:05 85° ESE 07:14:24 10° SSW
STARLINK-62 3.5 07:05:34 10° WSW 07:09:35 85° NNW 07:13:38 10° ENE
STARLINK-43 4.2 07:07:34 10° WNW 07:10:58 35° N 07:14:26 10° ENE
RESURS DK-1 3.8 07:07:14 10° S 07:11:10 44° ESE 07:15:08 10° NE
STARLINK 3.4 07:07:20 10° WSW 07:11:11 90° NNW 07:15:04 10° ENE
CORIOLIS 4.1 07:06:11 10° NNE 07:11:33 79° WNW 07:16:54 10° SSW
IRS-1C Rocket 4.1 07:06:29 10° N 07:11:45 71° WNW 07:16:59 10° SSW
Cosmos 2278 Rocket 4.3 07:09:08 10° N 07:13:10 19° NE 07:17:11 10° E
YAOGAN 1 4.4 07:09:57 10° NNE 07:13:58 36° E 07:17:56 10° SSE
AQUARIUS 4.4 07:14:20 10° N 07:18:42 50° WNW 07:23:02 10° SW
Alouette 2 Rocket 3.7 07:14:57 10° S 07:19:54 82° E 07:23:38 10° NNE
